Location: Praha
(50.0830°N, 14.4670°E)
Time: 22:26:28
(UTC+02:00)

ISS - Pass Details

Date: 09 May 2021
Orbit: 418 x 421 km, 51.6° (Epoch: 07 May)

Event Time Altitude Azimuth Distance (km) Brightness Sun altitude
Exits shadow 02:03:26 48° 86° (E) 560 -3.1 -21.1°
Drops below altitude 10° 02:06:00 10° 75° (ENE) 1,506 -0.5 -20.9°
Sets 02:08:06 0° 74° (ENE) 2,373 0.5 -20.8°
